Year,Month,Day,Hour,Minute,Value (Times are PST for temperature in C)
2013,04,21,00,00,7.50
2013,04,21,00,01,7.50
2013,04,21,00,02,7.50
2013,04,21,00,03,7.50
2013,04,21,00,04,7.40
2013,04,21,00,05,7.40
2013,04,21,00,06,7.40
2013,04,21,00,07,7.40
2013,04,21,00,08,7.40
2013,04,21,00,09,7.40
2013,04,21,00,10,7.40
2013,04,21,00,11,7.40
2013,04,21,00,12,7.40
2013,04,21,00,13,7.40
2013,04,21,00,14,7.40
2013,04,21,00,15,7.30
2013,04,21,00,16,7.30
2013,04,21,00,17,7.30
2013,04,21,00,18,7.30
2013,04,21,00,19,7.30
2013,04,21,00,20,7.30
2013,04,21,00,21,7.30
2013,04,21,00,22,7.30
2013,04,21,00,23,7.30
2013,04,21,00,24,7.30
2013,04,21,00,25,7.40
2013,04,21,00,26,7.40
2013,04,21,00,27,7.40
2013,04,21,00,28,7.40
2013,04,21,00,29,7.40
2013,04,21,00,30,7.40
2013,04,21,00,31,7.40
2013,04,21,00,32,7.40
2013,04,21,00,33,7.40
2013,04,21,00,34,7.40
2013,04,21,00,35,7.40
2013,04,21,00,36,7.40
2013,04,21,00,37,7.40
2013,04,21,00,38,7.30
2013,04,21,00,39,7.30
2013,04,21,00,40,7.30
2013,04,21,00,41,7.30
2013,04,21,00,42,7.30
2013,04,21,00,43,7.30
2013,04,21,00,44,7.30
2013,04,21,00,45,7.30
2013,04,21,00,46,7.30
2013,04,21,00,47,7.30
2013,04,21,00,48,7.30
2013,04,21,00,49,7.30
2013,04,21,00,50,7.30
2013,04,21,00,51,7.30
2013,04,21,00,52,7.30
2013,04,21,00,53,7.30
2013,04,21,00,54,7.30
2013,04,21,00,55,7.30
2013,04,21,00,56,7.30
2013,04,21,00,57,7.30
2013,04,21,00,58,7.30
2013,04,21,00,59,7.30
2013,04,21,01,00,7.30
2013,04,21,01,01,7.30
2013,04,21,01,02,7.30
2013,04,21,01,03,7.30
2013,04,21,01,04,7.30
2013,04,21,01,05,7.30
2013,04,21,01,06,7.30
2013,04,21,01,07,7.30
2013,04,21,01,08,7.30
2013,04,21,01,09,7.30
2013,04,21,01,10,7.30
2013,04,21,01,11,7.30
2013,04,21,01,12,7.30
2013,04,21,01,13,7.30
2013,04,21,01,14,7.30
2013,04,21,01,15,7.30
2013,04,21,01,16,7.30
2013,04,21,01,17,7.30
2013,04,21,01,18,7.30
2013,04,21,01,19,7.30
2013,04,21,01,20,7.30
2013,04,21,01,21,7.30
2013,04,21,01,22,7.30
2013,04,21,01,23,7.30
2013,04,21,01,24,7.30
2013,04,21,01,25,7.30
2013,04,21,01,26,7.30
2013,04,21,01,27,7.30
2013,04,21,01,28,7.30
2013,04,21,01,29,7.30
2013,04,21,01,30,7.30
2013,04,21,01,31,7.30
2013,04,21,01,32,7.30
2013,04,21,01,33,7.30
2013,04,21,01,34,7.30
2013,04,21,01,35,7.30
2013,04,21,01,36,7.30
2013,04,21,01,37,7.30
2013,04,21,01,38,7.30
2013,04,21,01,39,7.30
2013,04,21,01,40,7.30
2013,04,21,01,41,7.30
2013,04,21,01,42,7.30
2013,04,21,01,43,7.30
2013,04,21,01,44,7.20
2013,04,21,01,45,7.20
2013,04,21,01,46,7.20
2013,04,21,01,47,7.20
2013,04,21,01,48,7.20
2013,04,21,01,49,7.20
2013,04,21,01,50,7.20
2013,04,21,01,51,7.20
2013,04,21,01,52,7.20
2013,04,21,01,53,7.20
2013,04,21,01,54,7.20
2013,04,21,01,55,7.10
2013,04,21,01,56,7.10
2013,04,21,01,57,7.10
2013,04,21,01,58,7.10
2013,04,21,01,59,7.10
2013,04,21,02,00,7.10
2013,04,21,02,01,7.10
2013,04,21,02,02,7.10
2013,04,21,02,03,7.10
2013,04,21,02,04,7.00
2013,04,21,02,05,7.00
2013,04,21,02,06,7.00
2013,04,21,02,07,7.00
2013,04,21,02,08,7.00
2013,04,21,02,09,7.00
2013,04,21,02,10,7.00
2013,04,21,02,11,7.00
2013,04,21,02,12,7.00
2013,04,21,02,13,7.00
2013,04,21,02,14,7.10
2013,04,21,02,15,7.10
2013,04,21,02,16,7.10
2013,04,21,02,17,7.10
2013,04,21,02,18,7.10
2013,04,21,02,19,7.10
2013,04,21,02,20,7.10
2013,04,21,02,21,7.10
2013,04,21,02,22,7.10
2013,04,21,02,23,7.10
2013,04,21,02,24,7.10
2013,04,21,02,25,7.10
2013,04,21,02,26,7.10
2013,04,21,02,27,7.10
2013,04,21,02,28,7.10
2013,04,21,02,29,7.10
2013,04,21,02,30,7.20
2013,04,21,02,31,7.20
2013,04,21,02,32,7.20
2013,04,21,02,33,7.20
2013,04,21,02,34,7.20
2013,04,21,02,35,7.20
2013,04,21,02,36,7.20
2013,04,21,02,37,7.20
2013,04,21,02,38,7.20
2013,04,21,02,39,7.20
2013,04,21,02,40,7.20
2013,04,21,02,41,7.20
2013,04,21,02,42,7.20
2013,04,21,02,43,7.20
2013,04,21,02,44,7.10
2013,04,21,02,45,7.10
2013,04,21,02,46,7.10
2013,04,21,02,47,7.10
2013,04,21,02,48,7.10
2013,04,21,02,49,7.10
2013,04,21,02,50,7.10
2013,04,21,02,51,7.10
2013,04,21,02,52,7.10
2013,04,21,02,53,7.10
2013,04,21,02,54,7.10
2013,04,21,02,55,7.10
2013,04,21,02,56,7.10
2013,04,21,02,57,7.20
2013,04,21,02,58,7.20
2013,04,21,02,59,7.20
2013,04,21,03,00,7.20
2013,04,21,03,01,7.20
2013,04,21,03,02,7.20
2013,04,21,03,03,7.20
2013,04,21,03,04,7.20
2013,04,21,03,05,7.20
2013,04,21,03,06,7.20
2013,04,21,03,07,7.20
2013,04,21,03,08,7.20
2013,04,21,03,09,7.10
2013,04,21,03,10,7.10
2013,04,21,03,11,7.10
2013,04,21,03,12,7.20
2013,04,21,03,13,7.20
2013,04,21,03,14,7.20
2013,04,21,03,15,7.20
2013,04,21,03,16,7.20
2013,04,21,03,17,7.20
2013,04,21,03,18,7.20
2013,04,21,03,19,7.20
2013,04,21,03,20,7.20
2013,04,21,03,21,7.20
2013,04,21,03,22,7.20
2013,04,21,03,23,7.20
2013,04,21,03,24,7.20
2013,04,21,03,25,7.20
2013,04,21,03,26,7.20
2013,04,21,03,27,7.30
2013,04,21,03,28,7.30
2013,04,21,03,29,7.30
2013,04,21,03,30,7.30
2013,04,21,03,31,7.30
2013,04,21,03,32,7.30
2013,04,21,03,33,7.30
2013,04,21,03,34,7.30
2013,04,21,03,35,7.30
2013,04,21,03,36,7.30
2013,04,21,03,37,7.30
2013,04,21,03,38,7.30
2013,04,21,03,39,7.40
2013,04,21,03,40,7.40
2013,04,21,03,41,7.40
2013,04,21,03,42,7.40
2013,04,21,03,43,7.40
2013,04,21,03,44,7.40
2013,04,21,03,45,7.40
2013,04,21,03,46,7.40
2013,04,21,03,47,7.40
2013,04,21,03,48,7.40
2013,04,21,03,49,7.40
2013,04,21,03,50,7.50
2013,04,21,03,51,7.50
2013,04,21,03,52,7.50
2013,04,21,03,53,7.50
2013,04,21,03,54,7.50
2013,04,21,03,55,7.50
2013,04,21,03,56,7.50
2013,04,21,03,57,7.50
2013,04,21,03,58,7.50
2013,04,21,03,59,7.40
2013,04,21,04,00,7.40
2013,04,21,04,01,7.40
2013,04,21,04,02,7.40
2013,04,21,04,03,7.40
2013,04,21,04,04,7.40
2013,04,21,04,05,7.30
2013,04,21,04,06,7.30
2013,04,21,04,07,7.30
2013,04,21,04,08,7.30
2013,04,21,04,09,7.30
2013,04,21,04,10,7.30
2013,04,21,04,11,7.30
2013,04,21,04,12,7.30
2013,04,21,04,13,7.30
2013,04,21,04,14,7.20
2013,04,21,04,15,7.20
2013,04,21,04,16,7.20
2013,04,21,04,17,7.10
2013,04,21,04,18,7.10
2013,04,21,04,19,7.10
2013,04,21,04,20,7.10
2013,04,21,04,21,7.00
2013,04,21,04,22,7.00
2013,04,21,04,23,7.00
2013,04,21,04,24,7.00
2013,04,21,04,25,7.00
2013,04,21,04,26,6.90
2013,04,21,04,27,6.90
2013,04,21,04,28,6.90
2013,04,21,04,29,6.90
2013,04,21,04,30,6.90
2013,04,21,04,31,6.80
2013,04,21,04,32,6.80
2013,04,21,04,33,6.80
2013,04,21,04,34,6.80
2013,04,21,04,35,6.80
2013,04,21,04,36,6.80
2013,04,21,04,37,6.80
2013,04,21,04,38,6.90
2013,04,21,04,39,6.90
2013,04,21,04,40,6.80
2013,04,21,04,41,6.80
2013,04,21,04,42,6.80
2013,04,21,04,43,6.80
2013,04,21,04,44,6.80
2013,04,21,04,45,6.80
2013,04,21,04,46,6.80
2013,04,21,04,47,6.70
2013,04,21,04,48,6.70
2013,04,21,04,49,6.60
2013,04,21,04,50,6.60
2013,04,21,04,51,6.60
2013,04,21,04,52,6.60
2013,04,21,04,53,6.50
2013,04,21,04,54,6.40
2013,04,21,04,55,6.40
2013,04,21,04,56,6.40
2013,04,21,04,57,6.40
2013,04,21,04,58,6.40
2013,04,21,04,59,6.40
2013,04,21,05,00,6.40
2013,04,21,05,01,6.40
2013,04,21,05,02,6.40
2013,04,21,05,03,6.40
2013,04,21,05,04,6.40
2013,04,21,05,05,6.40
2013,04,21,05,06,6.40
2013,04,21,05,07,6.40
2013,04,21,05,08,6.40
2013,04,21,05,09,6.30
2013,04,21,05,10,6.30
2013,04,21,05,11,6.30
2013,04,21,05,12,6.30
2013,04,21,05,13,6.30
2013,04,21,05,14,6.30
2013,04,21,05,15,6.20
2013,04,21,05,16,6.20
2013,04,21,05,17,6.20
2013,04,21,05,18,6.20
2013,04,21,05,19,6.20
2013,04,21,05,20,6.20
2013,04,21,05,21,6.30
2013,04,21,05,22,6.30
2013,04,21,05,23,6.20
2013,04,21,05,24,6.20
2013,04,21,05,25,6.20
2013,04,21,05,26,6.20
2013,04,21,05,27,6.20
2013,04,21,05,28,6.20
2013,04,21,05,29,6.20
2013,04,21,05,30,6.20
2013,04,21,05,31,6.10
2013,04,21,05,32,6.10
2013,04,21,05,33,6.00
2013,04,21,05,34,6.00
2013,04,21,05,35,5.90
2013,04,21,05,36,5.90
2013,04,21,05,37,5.80
2013,04,21,05,38,5.70
2013,04,21,05,39,5.70
2013,04,21,05,40,5.60
2013,04,21,05,41,5.50
2013,04,21,05,42,5.50
2013,04,21,05,43,5.40
2013,04,21,05,44,5.40
2013,04,21,05,45,5.40
2013,04,21,05,46,5.30
2013,04,21,05,47,5.30
2013,04,21,05,48,5.30
2013,04,21,05,49,5.30
2013,04,21,05,50,5.30
2013,04,21,05,51,5.30
2013,04,21,05,52,5.30
2013,04,21,05,53,5.20
2013,04,21,05,54,5.20
2013,04,21,05,55,5.20
2013,04,21,05,56,5.20
2013,04,21,05,57,5.10
2013,04,21,05,58,5.10
2013,04,21,05,59,5.10
2013,04,21,06,00,5.10
2013,04,21,06,01,5.10
2013,04,21,06,02,5.10
2013,04,21,06,03,4.90
2013,04,21,06,04,4.90
2013,04,21,06,05,4.90
2013,04,21,06,06,4.90
2013,04,21,06,07,4.90
2013,04,21,06,08,4.80
2013,04,21,06,09,4.80
2013,04,21,06,10,4.80
2013,04,21,06,11,4.80
2013,04,21,06,12,4.80
2013,04,21,06,13,4.80
2013,04,21,06,14,4.80
2013,04,21,06,15,4.80
2013,04,21,06,16,4.80
2013,04,21,06,17,4.80
2013,04,21,06,18,4.80
2013,04,21,06,19,4.70
2013,04,21,06,20,4.70
2013,04,21,06,21,4.70
2013,04,21,06,22,4.70
2013,04,21,06,23,4.60
2013,04,21,06,24,4.60
2013,04,21,06,25,4.60
2013,04,21,06,26,4.50
2013,04,21,06,27,4.50
2013,04,21,06,28,4.50
2013,04,21,06,29,4.50
2013,04,21,06,30,4.40
2013,04,21,06,31,4.40
2013,04,21,06,32,4.40
2013,04,21,06,33,4.40
2013,04,21,06,34,4.30
2013,04,21,06,35,4.40
2013,04,21,06,36,4.40
2013,04,21,06,37,4.40
2013,04,21,06,38,4.50
2013,04,21,06,39,4.50
2013,04,21,06,40,4.50
2013,04,21,06,41,4.60
2013,04,21,06,42,4.60
2013,04,21,06,43,4.70
2013,04,21,06,44,4.80
2013,04,21,06,45,4.80
2013,04,21,06,46,4.90
2013,04,21,06,47,4.90
2013,04,21,06,48,4.90
2013,04,21,06,49,5.10
2013,04,21,06,50,5.10
2013,04,21,06,51,5.10
2013,04,21,06,52,5.10
2013,04,21,06,53,5.20
2013,04,21,06,54,5.20
2013,04,21,06,55,5.30
2013,04,21,06,56,5.30
2013,04,21,06,57,5.30
2013,04,21,06,58,5.30
2013,04,21,06,59,5.30
2013,04,21,07,00,5.30
2013,04,21,07,01,5.30
2013,04,21,07,02,5.40
2013,04,21,07,03,5.40
2013,04,21,07,04,5.40
2013,04,21,07,05,5.50
2013,04,21,07,06,5.50
2013,04,21,07,07,5.50
2013,04,21,07,08,5.60
2013,04,21,07,09,5.60
2013,04,21,07,10,5.60
2013,04,21,07,11,5.70
2013,04,21,07,12,5.70
2013,04,21,07,13,5.70
2013,04,21,07,14,5.70
2013,04,21,07,15,5.80
2013,04,21,07,16,5.80
2013,04,21,07,17,5.90
2013,04,21,07,18,5.90
2013,04,21,07,19,6.00
2013,04,21,07,20,6.00
2013,04,21,07,21,6.10
2013,04,21,07,22,6.10
2013,04,21,07,23,6.20
2013,04,21,07,24,6.20
2013,04,21,07,25,6.30
2013,04,21,07,26,6.30
2013,04,21,07,27,6.40
2013,04,21,07,28,6.40
2013,04,21,07,29,6.50
2013,04,21,07,30,6.60
2013,04,21,07,31,6.60
2013,04,21,07,32,6.60
2013,04,21,07,33,6.60
2013,04,21,07,34,6.70
2013,04,21,07,35,6.70
2013,04,21,07,36,6.80
2013,04,21,07,37,6.80
2013,04,21,07,38,6.80
2013,04,21,07,39,6.90
2013,04,21,07,40,7.00
2013,04,21,07,41,7.00
2013,04,21,07,42,7.00
2013,04,21,07,43,7.10
2013,04,21,07,44,7.10
2013,04,21,07,45,7.10
2013,04,21,07,46,7.10
2013,04,21,07,47,7.10
2013,04,21,07,48,7.10
2013,04,21,07,49,7.10
2013,04,21,07,50,7.10
2013,04,21,07,51,7.10
2013,04,21,07,52,7.10
2013,04,21,07,53,7.20
2013,04,21,07,54,7.20
2013,04,21,07,55,7.20
2013,04,21,07,56,7.10
2013,04,21,07,57,7.10
2013,04,21,07,58,7.10
2013,04,21,07,59,7.10
2013,04,21,08,00,7.10
2013,04,21,08,01,7.10
2013,04,21,08,02,7.10
2013,04,21,08,03,7.10
2013,04,21,08,04,7.10
2013,04,21,08,05,7.10
2013,04,21,08,06,7.10
2013,04,21,08,07,7.10
2013,04,21,08,08,7.20
2013,04,21,08,09,7.10
2013,04,21,08,10,7.10
2013,04,21,08,11,7.10
2013,04,21,08,12,7.10
2013,04,21,08,13,7.20
2013,04,21,08,14,7.20
2013,04,21,08,15,7.20
2013,04,21,08,16,7.30
2013,04,21,08,17,7.30
2013,04,21,08,18,7.40
2013,04,21,08,19,7.50
2013,04,21,08,20,7.50
2013,04,21,08,21,7.60
2013,04,21,08,22,7.60
2013,04,21,08,23,7.70
2013,04,21,08,24,7.70
2013,04,21,08,25,7.80
2013,04,21,08,26,7.80
2013,04,21,08,27,7.80
2013,04,21,08,28,7.90
2013,04,21,08,29,7.90
2013,04,21,08,30,8.00
2013,04,21,08,31,8.10
2013,04,21,08,32,8.10
2013,04,21,08,33,8.10
2013,04,21,08,34,8.10
2013,04,21,08,35,8.20
2013,04,21,08,36,8.20
2013,04,21,08,37,8.20
2013,04,21,08,38,8.20
2013,04,21,08,39,8.20
2013,04,21,08,40,8.30
2013,04,21,08,41,8.30
2013,04,21,08,42,8.30
2013,04,21,08,43,8.40
2013,04,21,08,44,8.40
2013,04,21,08,45,8.40
2013,04,21,08,46,8.40
2013,04,21,08,47,8.50
2013,04,21,08,48,8.50
2013,04,21,08,49,8.60
2013,04,21,08,50,8.60
2013,04,21,08,51,8.70
2013,04,21,08,52,8.70
2013,04,21,08,53,8.70
2013,04,21,08,54,8.60
2013,04,21,08,55,8.70
2013,04,21,08,56,8.70
2013,04,21,08,57,8.70
2013,04,21,08,58,8.80
2013,04,21,08,59,8.90
2013,04,21,09,00,8.90
2013,04,21,09,01,8.90
2013,04,21,09,02,8.90
2013,04,21,09,03,9.00
2013,04,21,09,04,9.00
2013,04,21,09,05,9.00
2013,04,21,09,06,9.10
2013,04,21,09,07,9.20
2013,04,21,09,08,9.20
2013,04,21,09,09,9.20
2013,04,21,09,10,9.20
2013,04,21,09,11,9.20
2013,04,21,09,12,9.20
2013,04,21,09,13,9.20
2013,04,21,09,14,9.20
2013,04,21,09,15,9.20
2013,04,21,09,16,9.30
2013,04,21,09,17,9.30
2013,04,21,09,18,9.40
2013,04,21,09,19,9.40
2013,04,21,09,20,9.50
2013,04,21,09,21,9.60
2013,04,21,09,22,9.60
2013,04,21,09,23,9.50
2013,04,21,09,24,9.50
2013,04,21,09,25,9.50
2013,04,21,09,26,9.60
2013,04,21,09,27,9.60
2013,04,21,09,28,9.50
2013,04,21,09,29,9.50
2013,04,21,09,30,9.50
2013,04,21,09,31,9.50
2013,04,21,09,32,9.50
2013,04,21,09,33,9.50
2013,04,21,09,34,9.50
2013,04,21,09,35,9.60
2013,04,21,09,36,9.60
2013,04,21,09,37,9.60
2013,04,21,09,38,9.60
2013,04,21,09,39,9.60
2013,04,21,09,40,9.70
2013,04,21,09,41,9.70
2013,04,21,09,42,9.70
2013,04,21,09,43,9.70
2013,04,21,09,44,9.70
2013,04,21,09,45,9.80
2013,04,21,09,46,9.80
2013,04,21,09,47,9.80
2013,04,21,09,48,9.70
2013,04,21,09,49,9.70
2013,04,21,09,50,9.70
2013,04,21,09,51,9.70
2013,04,21,09,52,9.70
2013,04,21,09,53,9.80
2013,04,21,09,54,9.80
2013,04,21,09,55,9.90
2013,04,21,09,56,9.90
2013,04,21,09,57,9.90
2013,04,21,09,58,10.00
2013,04,21,09,59,10.10
2013,04,21,10,00,10.10
2013,04,21,10,01,10.10
2013,04,21,10,02,10.00
2013,04,21,10,03,9.90
2013,04,21,10,04,9.80
2013,04,21,10,05,9.80
2013,04,21,10,06,9.90
2013,04,21,10,07,9.90
2013,04,21,10,08,9.90
2013,04,21,10,09,9.90
2013,04,21,10,10,9.80
2013,04,21,10,11,9.80
2013,04,21,10,12,9.70
2013,04,21,10,13,9.70
2013,04,21,10,14,9.60
2013,04,21,10,15,9.50
2013,04,21,10,16,9.40
2013,04,21,10,17,9.40
2013,04,21,10,18,9.30
2013,04,21,10,19,9.40
2013,04,21,10,20,9.40
2013,04,21,10,21,9.50
2013,04,21,10,22,9.50
2013,04,21,10,23,9.50
2013,04,21,10,24,9.50
2013,04,21,10,25,9.70
2013,04,21,10,26,9.80
2013,04,21,10,27,9.90
2013,04,21,10,28,9.90
2013,04,21,10,29,9.90
2013,04,21,10,30,10.10
2013,04,21,10,31,10.10
2013,04,21,10,32,10.20
2013,04,21,10,33,10.40
2013,04,21,10,34,10.60
2013,04,21,10,35,10.70
2013,04,21,10,36,10.70
2013,04,21,10,37,10.80
2013,04,21,10,38,10.90
2013,04,21,10,39,10.90
2013,04,21,10,40,10.90
2013,04,21,10,41,10.90
2013,04,21,10,42,10.90
2013,04,21,10,43,10.90
2013,04,21,10,44,10.80
2013,04,21,10,45,10.80
2013,04,21,10,46,10.70
2013,04,21,10,47,10.60
2013,04,21,10,48,10.50
2013,04,21,10,49,10.40
2013,04,21,10,50,10.40
2013,04,21,10,51,10.40
2013,04,21,10,52,10.40
2013,04,21,10,53,10.40
2013,04,21,10,54,10.40
2013,04,21,10,55,10.40
2013,04,21,10,56,10.40
2013,04,21,10,57,10.40
2013,04,21,10,58,10.50
2013,04,21,10,59,10.60
2013,04,21,11,00,10.60
2013,04,21,11,01,10.80
2013,04,21,11,02,10.90
2013,04,21,11,03,10.90
2013,04,21,11,04,11.10
2013,04,21,11,05,11.20
2013,04,21,11,06,11.30
2013,04,21,11,07,11.40
2013,04,21,11,08,11.60
2013,04,21,11,09,11.80
2013,04,21,11,10,11.90
2013,04,21,11,11,11.90
2013,04,21,11,12,11.90
2013,04,21,11,13,11.90
2013,04,21,11,14,11.90
2013,04,21,11,15,12.00
2013,04,21,11,16,11.90
2013,04,21,11,17,11.80
2013,04,21,11,18,11.80
2013,04,21,11,19,11.70
2013,04,21,11,20,11.70
2013,04,21,11,21,11.80
2013,04,21,11,22,11.80
2013,04,21,11,23,11.80
2013,04,21,11,24,11.80
2013,04,21,11,25,11.80
2013,04,21,11,26,11.80
2013,04,21,11,27,11.80
2013,04,21,11,28,11.60
2013,04,21,11,29,11.50
2013,04,21,11,30,11.40
2013,04,21,11,31,11.30
2013,04,21,11,32,11.20
2013,04,21,11,33,11.10
2013,04,21,11,34,11.10
2013,04,21,11,35,11.00
2013,04,21,11,36,10.90
2013,04,21,11,37,10.90
2013,04,21,11,38,10.90
2013,04,21,11,39,10.90
2013,04,21,11,40,10.80
2013,04,21,11,41,10.80
2013,04,21,11,42,10.90
2013,04,21,11,43,10.90
2013,04,21,11,44,10.90
2013,04,21,11,45,10.90
2013,04,21,11,46,10.80
2013,04,21,11,47,10.90
2013,04,21,11,48,10.80
2013,04,21,11,49,10.80
2013,04,21,11,50,10.90
2013,04,21,11,51,10.80
2013,04,21,11,52,10.70
2013,04,21,11,53,10.80
2013,04,21,11,54,10.80
2013,04,21,11,55,10.90
2013,04,21,11,56,10.90
2013,04,21,11,57,10.90
2013,04,21,11,58,10.90
2013,04,21,11,59,11.00
2013,04,21,12,00,11.10
2013,04,21,12,01,11.10
2013,04,21,12,02,11.10
2013,04,21,12,03,11.10
2013,04,21,12,04,11.20
2013,04,21,12,05,11.20
2013,04,21,12,06,11.30
2013,04,21,12,07,11.30
2013,04,21,12,08,11.20
2013,04,21,12,09,11.10
2013,04,21,12,10,11.00
2013,04,21,12,11,10.90
2013,04,21,12,12,10.90
2013,04,21,12,13,10.90
2013,04,21,12,14,10.90
2013,04,21,12,15,10.90
2013,04,21,12,16,10.90
2013,04,21,12,17,10.90
2013,04,21,12,18,10.90
2013,04,21,12,19,10.90
2013,04,21,12,20,10.90
2013,04,21,12,21,10.90
2013,04,21,12,22,10.90
2013,04,21,12,23,10.90
2013,04,21,12,24,10.90
2013,04,21,12,25,10.80
2013,04,21,12,26,10.70
2013,04,21,12,27,10.70
2013,04,21,12,28,10.70
2013,04,21,12,29,10.70
2013,04,21,12,30,10.60
2013,04,21,12,31,10.60
2013,04,21,12,32,10.50
2013,04,21,12,33,10.40
2013,04,21,12,34,10.40
2013,04,21,12,35,10.30
2013,04,21,12,36,10.20
2013,04,21,12,37,10.10
2013,04,21,12,38,9.90
2013,04,21,12,39,9.80
2013,04,21,12,40,9.70
2013,04,21,12,41,9.70
2013,04,21,12,42,9.70
2013,04,21,12,43,9.70
2013,04,21,12,44,9.70
2013,04,21,12,45,9.60
2013,04,21,12,46,9.60
2013,04,21,12,47,9.50
2013,04,21,12,48,9.40
2013,04,21,12,49,9.30
2013,04,21,12,50,9.30
2013,04,21,12,51,9.20
2013,04,21,12,52,9.20
2013,04,21,12,53,9.10
2013,04,21,12,54,9.00
2013,04,21,12,55,8.90
2013,04,21,12,56,8.90
2013,04,21,12,57,8.80
2013,04,21,12,58,8.70
2013,04,21,12,59,8.70
2013,04,21,13,00,8.60
2013,04,21,13,01,8.60
2013,04,21,13,02,8.50
2013,04,21,13,03,8.40
2013,04,21,13,04,8.40
2013,04,21,13,05,8.30
2013,04,21,13,06,8.30
2013,04,21,13,07,8.30
2013,04,21,13,08,8.20
2013,04,21,13,09,8.20
2013,04,21,13,10,8.20
2013,04,21,13,11,8.20
2013,04,21,13,12,8.20
2013,04,21,13,13,8.20
2013,04,21,13,14,8.20
2013,04,21,13,15,8.20
2013,04,21,13,16,8.10
2013,04,21,13,17,8.10
2013,04,21,13,18,8.10
2013,04,21,13,19,8.10
2013,04,21,13,20,8.10
2013,04,21,13,21,8.10
2013,04,21,13,22,8.10
2013,04,21,13,23,8.10
2013,04,21,13,24,8.10
2013,04,21,13,25,8.10
2013,04,21,13,26,8.10
2013,04,21,13,27,8.10
2013,04,21,13,28,8.10
2013,04,21,13,29,8.10
2013,04,21,13,30,8.10
2013,04,21,13,31,8.10
2013,04,21,13,32,8.10
2013,04,21,13,33,8.10
2013,04,21,13,34,8.20
2013,04,21,13,35,8.20
2013,04,21,13,36,8.20
2013,04,21,13,37,8.20
2013,04,21,13,38,8.20
2013,04,21,13,39,8.20
2013,04,21,13,40,8.30
2013,04,21,13,41,8.30
2013,04,21,13,42,8.30
2013,04,21,13,43,8.30
2013,04,21,13,44,8.40
2013,04,21,13,45,8.40
2013,04,21,13,46,8.30
2013,04,21,13,47,8.30
2013,04,21,13,48,8.30
2013,04,21,13,49,8.30
2013,04,21,13,50,8.20
2013,04,21,13,51,8.10
2013,04,21,13,52,8.00
2013,04,21,13,53,8.00
2013,04,21,13,54,7.90
2013,04,21,13,55,7.80
2013,04,21,13,56,7.80
2013,04,21,13,57,7.70
2013,04,21,13,58,7.70
2013,04,21,13,59,7.60
2013,04,21,14,00,7.50
2013,04,21,14,01,7.50
2013,04,21,14,02,7.50
2013,04,21,14,03,7.50
2013,04,21,14,04,7.60
2013,04,21,14,05,7.60
2013,04,21,14,06,7.60
2013,04,21,14,07,7.60
2013,04,21,14,08,7.60
2013,04,21,14,09,7.70
2013,04,21,14,10,7.80
2013,04,21,14,11,7.80
2013,04,21,14,12,7.80
2013,04,21,14,13,7.80
2013,04,21,14,14,7.90
2013,04,21,14,15,7.90
2013,04,21,14,16,7.90
2013,04,21,14,17,7.90
2013,04,21,14,18,7.90
2013,04,21,14,19,8.00
2013,04,21,14,20,8.00
2013,04,21,14,21,8.00
2013,04,21,14,22,8.00
2013,04,21,14,23,7.90
2013,04,21,14,24,7.80
2013,04,21,14,25,7.80
2013,04,21,14,26,7.80
2013,04,21,14,27,7.80
2013,04,21,14,28,7.70
2013,04,21,14,29,7.60
2013,04,21,14,30,7.60
2013,04,21,14,31,7.50
2013,04,21,14,32,7.50
2013,04,21,14,33,7.50
2013,04,21,14,34,7.50
2013,04,21,14,35,7.40
2013,04,21,14,36,7.40
2013,04,21,14,37,7.40
2013,04,21,14,38,7.40
2013,04,21,14,39,7.40
2013,04,21,14,40,7.40
2013,04,21,14,41,7.40
2013,04,21,14,42,7.40
2013,04,21,14,43,7.30
2013,04,21,14,44,7.30
2013,04,21,14,45,7.30
2013,04,21,14,46,7.30
2013,04,21,14,47,7.30
2013,04,21,14,48,7.30
2013,04,21,14,49,7.20
2013,04,21,14,50,7.10
2013,04,21,14,51,7.10
2013,04,21,14,52,7.00
2013,04,21,14,53,7.00
2013,04,21,14,54,6.90
2013,04,21,14,55,6.80
2013,04,21,14,56,6.80
2013,04,21,14,57,6.80
2013,04,21,14,58,6.70
2013,04,21,14,59,6.60
2013,04,21,15,00,6.60
2013,04,21,15,01,6.60
2013,04,21,15,02,6.60
2013,04,21,15,03,6.60
2013,04,21,15,04,6.50
2013,04,21,15,05,6.40
2013,04,21,15,06,6.40
2013,04,21,15,07,6.40
2013,04,21,15,08,6.40
2013,04,21,15,09,6.40
2013,04,21,15,10,6.40
2013,04,21,15,11,6.50
2013,04,21,15,12,6.60
2013,04,21,15,13,6.50
2013,04,21,15,14,6.50
2013,04,21,15,15,6.50
2013,04,21,15,16,6.50
2013,04,21,15,17,6.60
2013,04,21,15,18,6.60
2013,04,21,15,19,6.50
2013,04,21,15,20,6.40
2013,04,21,15,21,6.40
2013,04,21,15,22,6.30
2013,04,21,15,23,6.40
2013,04,21,15,24,6.30
2013,04,21,15,25,6.30
2013,04,21,15,26,6.30
2013,04,21,15,27,6.30
2013,04,21,15,28,6.20
2013,04,21,15,29,6.20
2013,04,21,15,30,6.20
2013,04,21,15,31,6.20
2013,04,21,15,32,6.20
2013,04,21,15,33,6.20
2013,04,21,15,34,6.20
2013,04,21,15,35,6.20
2013,04,21,15,36,6.20
2013,04,21,15,37,6.20
2013,04,21,15,38,6.20
2013,04,21,15,39,6.20
2013,04,21,15,40,6.20
2013,04,21,15,41,6.30
2013,04,21,15,42,6.30
2013,04,21,15,43,6.30
2013,04,21,15,44,6.30
2013,04,21,15,45,6.20
2013,04,21,15,46,6.20
2013,04,21,15,47,6.20
2013,04,21,15,48,6.30
2013,04,21,15,49,6.30
2013,04,21,15,50,6.40
2013,04,21,15,51,6.40
2013,04,21,15,52,6.40
2013,04,21,15,53,6.50
2013,04,21,15,54,6.40
2013,04,21,15,55,6.50
2013,04,21,15,56,6.60
2013,04,21,15,57,6.60
2013,04,21,15,58,6.60
2013,04,21,15,59,6.60
2013,04,21,16,00,6.60
2013,04,21,16,01,6.60
2013,04,21,16,02,6.70
2013,04,21,16,03,6.70
2013,04,21,16,04,6.80
2013,04,21,16,05,6.80
2013,04,21,16,06,6.80
2013,04,21,16,07,6.80
2013,04,21,16,08,6.80
2013,04,21,16,09,6.90
2013,04,21,16,10,6.90
2013,04,21,16,11,6.90
2013,04,21,16,12,7.00
2013,04,21,16,13,7.10
2013,04,21,16,14,7.10
2013,04,21,16,15,7.00
2013,04,21,16,16,7.00
2013,04,21,16,17,7.00
2013,04,21,16,18,7.00
2013,04,21,16,19,7.00
2013,04,21,16,20,7.00
2013,04,21,16,21,7.10
2013,04,21,16,22,7.10
2013,04,21,16,23,7.10
2013,04,21,16,24,7.10
2013,04,21,16,25,7.10
2013,04,21,16,26,7.10
2013,04,21,16,27,7.20
2013,04,21,16,28,7.20
2013,04,21,16,29,7.30
2013,04,21,16,30,7.30
2013,04,21,16,31,7.30
2013,04,21,16,32,7.40
2013,04,21,16,33,7.40
2013,04,21,16,34,7.50
2013,04,21,16,35,7.50
2013,04,21,16,36,7.50
2013,04,21,16,37,7.50
2013,04,21,16,38,7.50
2013,04,21,16,39,7.60
2013,04,21,16,40,7.60
2013,04,21,16,41,7.60
2013,04,21,16,42,7.60
2013,04,21,16,43,7.60
2013,04,21,16,44,7.60
2013,04,21,16,45,7.60
2013,04,21,16,46,7.60
2013,04,21,16,47,7.70
2013,04,21,16,48,7.60
2013,04,21,16,49,7.60
2013,04,21,16,50,7.60
2013,04,21,16,51,7.70
2013,04,21,16,52,7.70
2013,04,21,16,53,7.70
2013,04,21,16,54,7.70
2013,04,21,16,55,7.70
2013,04,21,16,56,7.70
2013,04,21,16,57,7.80
2013,04,21,16,58,7.80
2013,04,21,16,59,7.80
2013,04,21,17,00,7.80
2013,04,21,17,01,7.80
2013,04,21,17,02,7.80
2013,04,21,17,03,7.80
2013,04,21,17,04,7.80
2013,04,21,17,05,7.80
2013,04,21,17,06,7.80
2013,04,21,17,07,7.80
2013,04,21,17,08,7.80
2013,04,21,17,09,7.70
2013,04,21,17,10,7.70
2013,04,21,17,11,7.70
2013,04,21,17,12,7.60
2013,04,21,17,13,7.50
2013,04,21,17,14,7.50
2013,04,21,17,15,7.60
2013,04,21,17,16,7.60
2013,04,21,17,17,7.60
2013,04,21,17,18,7.60
2013,04,21,17,19,7.60
2013,04,21,17,20,7.60
2013,04,21,17,21,7.60
2013,04,21,17,22,7.60
2013,04,21,17,23,7.60
2013,04,21,17,24,7.60
2013,04,21,17,25,7.60
2013,04,21,17,26,7.60
2013,04,21,17,27,7.60
2013,04,21,17,28,7.70
2013,04,21,17,29,7.70
2013,04,21,17,30,7.70
2013,04,21,17,31,7.70
2013,04,21,17,32,7.70
2013,04,21,17,33,7.60
2013,04,21,17,34,7.60
2013,04,21,17,35,7.60
2013,04,21,17,36,7.60
2013,04,21,17,37,7.60
2013,04,21,17,38,7.60
2013,04,21,17,39,7.60
2013,04,21,17,40,7.60
2013,04,21,17,41,7.50
2013,04,21,17,42,7.50
2013,04,21,17,43,7.50
2013,04,21,17,44,7.40
2013,04,21,17,45,7.40
2013,04,21,17,46,7.40
2013,04,21,17,47,7.40
2013,04,21,17,48,7.40
2013,04,21,17,49,7.40
2013,04,21,17,50,7.50
2013,04,21,17,51,7.50
2013,04,21,17,52,7.50
2013,04,21,17,53,7.60
2013,04,21,17,54,7.60
2013,04,21,17,55,7.60
2013,04,21,17,56,7.60
2013,04,21,17,57,7.60
2013,04,21,17,58,7.60
2013,04,21,17,59,7.70
2013,04,21,18,00,7.70